TimeCST,TemperatureF,Dew PointF,Humidity,Sea Level PressureIn,VisibilityMPH,Wind Direction,Wind SpeedMPH,Gust SpeedMPH,PrecipitationIn,Events,Conditions,WindDirDegrees,DateUTC
12:15 AM,-21.3,-29.2,67,29.83,10.0,West,10.4,-,N/A,,Clear,260,2014-01-07 06:15:00
12:35 AM,-21.6,-29.9,65,29.82,10.0,West,8.1,-,N/A,,Clear,260,2014-01-07 06:35:00
12:55 AM,-21.5,-29.6,66,29.82,7.0,West,5.8,-,N/A,,Scattered Clouds,260,2014-01-07 06:55:00
1:15 AM,-22.0,-30.1,66,29.82,10.0,Calm,Calm,-,N/A,,Clear,0,2014-01-07 07:15:00
1:35 AM,-22.0,-30.1,66,29.83,10.0,Calm,Calm,-,N/A,,Clear,0,2014-01-07 07:35:00
1:55 AM,-21.8,-30.1,65,29.83,10.0,Calm,Calm,-,N/A,,Clear,0,2014-01-07 07:55:00
2:15 AM,-22.0,-29.7,67,29.84,10.0,WSW,9.2,-,N/A,,Scattered Clouds,250,2014-01-07 08:15:00
2:35 AM,-22.0,-29.6,68,29.84,10.0,WSW,6.9,18.4,N/A,,Mostly Cloudy,250,2014-01-07 08:35:00
2:55 AM,-22.2,-29.7,68,29.84,10.0,West,11.5,17.3,N/A,,Mostly Cloudy,270,2014-01-07 08:55:00
3:15 AM,-22.5,-29.9,68,29.86,10.0,West,11.5,16.1,N/A,,Scattered Clouds,270,2014-01-07 09:15:00
3:35 AM,-22.7,-30.1,68,29.85,10.0,West,10.4,17.3,N/A,,Clear,260,2014-01-07 09:35:00
3:55 AM,-22.9,-30.1,69,29.86,10.0,West,10.4,18.4,N/A,,Clear,260,2014-01-07 09:55:00
4:15 AM,-23.3,-30.8,68,29.85,10.0,West,10.4,-,N/A,,Clear,260,2014-01-07 10:15:00
4:35 AM,-23.3,-31.0,67,29.84,10.0,Calm,Calm,-,N/A,,Clear,0,2014-01-07 10:35:00
4:55 AM,-23.6,-31.2,68,29.84,10.0,West,10.4,-,N/A,,Clear,260,2014-01-07 10:55:00
5:15 AM,-23.6,-31.2,68,29.83,10.0,West,11.5,-,N/A,,Clear,260,2014-01-07 11:15:00
5:35 AM,-23.4,-31.0,68,29.83,10.0,WSW,10.4,-,N/A,,Clear,250,2014-01-07 11:35:00
5:55 AM,-23.8,-31.4,68,29.84,10.0,West,9.2,-,N/A,,Clear,260,2014-01-07 11:55:00
6:15 AM,-23.8,-31.4,68,29.84,5.0,WSW,3.5,-,N/A,,Haze,250,2014-01-07 12:15:00
6:35 AM,-24.0,-31.5,68,29.84,7.0,Calm,Calm,-,N/A,,Clear,0,2014-01-07 12:35:00
6:55 AM,-24.0,-31.7,67,29.85,10.0,Calm,Calm,-,N/A,,Clear,0,2014-01-07 12:55:00
7:15 AM,-24.2,-31.5,68,29.85,10.0,Calm,Calm,-,N/A,,Clear,0,2014-01-07 13:15:00
7:35 AM,-24.0,-31.4,68,29.86,10.0,Calm,Calm,-,N/A,,Clear,0,2014-01-07 13:35:00
7:55 AM,-23.8,-31.4,68,29.87,10.0,Calm,Calm,-,N/A,,Clear,0,2014-01-07 13:55:00
8:15 AM,-23.1,-30.8,67,29.88,7.0,West,10.4,16.1,N/A,,Scattered Clouds,270,2014-01-07 14:15:00
8:35 AM,-22.9,-31.0,66,29.89,4.0,West,10.4,17.3,N/A,,Haze,260,2014-01-07 14:35:00
8:55 AM,-22.4,-30.1,67,29.91,4.0,West,10.4,-,N/A,,Haze,270,2014-01-07 14:55:00
9:15 AM,-21.5,-30.1,64,29.91,7.0,West,11.5,-,N/A,,Clear,270,2014-01-07 15:15:00
9:35 AM,-20.2,-29.2,63,29.91,7.0,West,12.7,18.4,N/A,,Clear,260,2014-01-07 15:35:00
9:55 AM,-19.1,-28.3,63,29.91,7.0,West,8.1,17.3,N/A,,Clear,280,2014-01-07 15:55:00
10:15 AM,-17.7,-27.0,62,29.92,7.0,West,10.4,16.1,N/A,,Clear,270,2014-01-07 16:15:00
10:35 AM,-16.4,-26.0,62,29.92,5.0,West,11.5,20.7,N/A,,Haze,270,2014-01-07 16:35:00
10:55 AM,-15.0,-24.7,62,29.92,7.0,West,10.4,16.1,N/A,,Clear,280,2014-01-07 16:55:00
11:15 AM,-14.1,-23.8,62,29.91,7.0,West,12.7,-,N/A,,Clear,260,2014-01-07 17:15:00
11:35 AM,-12.8,-22.5,62,29.91,7.0,West,13.8,-,N/A,,Clear,270,2014-01-07 17:35:00
11:55 AM,-11.6,-21.5,62,29.91,7.0,WSW,13.8,23.0,N/A,,Clear,250,2014-01-07 17:55:00
12:15 PM,-10.5,-20.6,61,29.90,7.0,West,9.2,19.6,N/A,,Clear,270,2014-01-07 18:15:00
12:35 PM,-9.8,-20.2,60,29.90,7.0,West,10.4,-,N/A,,Clear,260,2014-01-07 18:35:00
12:55 PM,-8.5,-19.3,59,29.89,10.0,WSW,15.0,-,N/A,,Clear,250,2014-01-07 18:55:00
1:15 PM,-8.0,-18.4,60,29.89,10.0,West,10.4,-,N/A,,Clear,260,2014-01-07 19:15:00
1:35 PM,-6.9,-17.9,59,29.89,10.0,WSW,9.2,-,N/A,,Clear,250,2014-01-07 19:35:00
1:55 PM,-6.3,-17.5,58,29.90,10.0,West,10.4,-,N/A,,Clear,260,2014-01-07 19:55:00
2:15 PM,-5.8,-16.8,59,29.91,10.0,Calm,Calm,-,N/A,,Clear,0,2014-01-07 20:15:00
2:35 PM,-5.3,-15.9,60,29.91,10.0,West,10.4,16.1,N/A,,Clear,270,2014-01-07 20:35:00
2:55 PM,-5.3,-16.1,60,29.92,10.0,Calm,Calm,-,N/A,,Clear,0,2014-01-07 20:55:00
3:15 PM,-5.3,-16.1,60,29.93,10.0,Calm,Calm,-,N/A,,Clear,0,2014-01-07 21:15:00
3:35 PM,-4.9,-15.5,60,29.94,10.0,West,11.5,16.1,N/A,,Clear,270,2014-01-07 21:35:00
3:55 PM,-5.6,-15.9,61,29.94,10.0,West,6.9,-,N/A,,Clear,280,2014-01-07 21:55:00
4:15 PM,-6.5,-16.2,63,29.96,10.0,West,5.8,-,N/A,,Clear,270,2014-01-07 22:15:00
4:35 PM,-7.4,-16.6,64,29.97,10.0,Calm,Calm,-,N/A,,Clear,0,2014-01-07 22:35:00
4:55 PM,-8.1,-16.8,66,29.98,10.0,Calm,Calm,-,N/A,,Clear,0,2014-01-07 22:55:00
5:15 PM,-8.5,-16.6,68,29.98,10.0,Calm,Calm,-,N/A,,Clear,0,2014-01-07 23:15:00
5:35 PM,-8.9,-16.8,68,29.99,10.0,Calm,Calm,-,N/A,,Clear,0,2014-01-07 23:35:00
5:55 PM,-12.8,-19.3,73,30.00,10.0,Calm,Calm,-,N/A,,Clear,0,2014-01-07 23:55:00
6:15 PM,-12.5,-18.8,74,30.00,10.0,Calm,Calm,-,N/A,,Clear,0,2014-01-08 00:15:00
6:35 PM,-12.5,-18.6,74,30.00,10.0,Calm,Calm,-,N/A,,Clear,0,2014-01-08 00:35:00
6:55 PM,-13.2,-18.9,75,30.01,10.0,Calm,Calm,-,N/A,,Clear,0,2014-01-08 00:55:00
7:15 PM,-15.0,-20.7,75,30.01,10.0,Calm,Calm,-,N/A,,Clear,0,2014-01-08 01:15:00
7:35 PM,-16.4,-22.4,74,30.02,10.0,Calm,Calm,-,N/A,,Clear,0,2014-01-08 01:35:00
7:55 PM,-14.8,-20.6,75,30.02,10.0,Calm,Calm,-,N/A,,Clear,0,2014-01-08 01:55:00
8:15 PM,-18.6,-25.1,72,30.02,10.0,Calm,Calm,-,N/A,,Clear,0,2014-01-08 02:15:00
8:35 PM,-20.4,-26.1,75,30.02,10.0,Calm,Calm,-,N/A,,Clear,0,2014-01-08 02:35:00
8:55 PM,-19.3,-25.4,73,30.03,10.0,Calm,Calm,-,N/A,,Clear,0,2014-01-08 02:55:00
9:15 PM,-20.7,-26.7,74,30.04,10.0,Calm,Calm,-,N/A,,Clear,0,2014-01-08 03:15:00
9:35 PM,-18.8,-24.3,76,30.05,10.0,Calm,Calm,-,N/A,,Clear,0,2014-01-08 03:35:00
9:55 PM,-22.4,-28.5,73,30.06,10.0,Calm,Calm,-,N/A,,Clear,0,2014-01-08 03:55:00
10:15 PM,-20.7,-27.0,73,30.06,10.0,Calm,Calm,-,N/A,,Clear,0,2014-01-08 04:15:00
10:35 PM,-21.1,-27.2,73,30.07,10.0,Calm,Calm,-,N/A,,Clear,0,2014-01-08 04:35:00
10:55 PM,-19.7,-26.0,73,30.07,10.0,Calm,Calm,-,N/A,,Scattered Clouds,0,2014-01-08 04:55:00
11:15 PM,-21.1,-27.4,73,30.07,10.0,Calm,Calm,-,N/A,Snow,Light Snow,0,2014-01-08 05:15:00
11:35 PM,-24.0,-30.5,72,30.07,10.0,Calm,Calm,-,N/A,Snow,Light Snow,0,2014-01-08 05:35:00
11:55 PM,-21.6,-28.1,72,30.08,10.0,Calm,Calm,-,N/A,Snow,Light Snow,0,2014-01-08 05:55:00